EW3649 Weather Reports


time (UTC)temp
C
wind
direction
speed
KPH
gust
KPH
rain 1hr
cm
rain 24hr
cm
rain mn
cm
humidity
%
barometer
mb
20260902192005 21 0 0.0 0.0 0.00 0.03 0.03 59 1004.5
20260902191504 21 0 0.0 0.0 0.00 0.03 0.03 62 1004.7
20260902191006 20 0 0.0 0.0 0.00 0.03 0.03 65 1004.7
20260902190504 20 0 0.0 0.0 0.00 0.03 0.03 64 1004.8
20260902190005 20 270 0.0 1.6 0.00 0.03 0.03 62 1004.8
20260902185504 20 270 0.0 1.6 0.00 0.03 0.03 64 1004.8
20260902185004 20 0 0.0 0.0 0.00 0.03 0.03 66 1004.8
20260902184505 19 0 0.0 0.0 0.00 0.03 0.03 67 1004.9
20260902183505 18 0 0.0 0.0 0.00 0.03 0.03 68 1005.0
20260902182504 18 0 0.0 0.0 0.00 0.03 0.03 72 1005.1
20260902182005 18 0 0.0 0.0 0.00 0.03 0.03 72 1005.1
20260902181504 17 0 0.0 0.0 0.00 0.03 0.03 74 1005.2
20260902181005 17 0 0.0 0.0 0.00 0.03 0.03 75 1005.2
20260902180505 17 0 0.0 0.0 0.00 0.03 0.03 74 1005.3
20260902180007 17 0 0.0 0.0 0.00 0.03 0.03 75 1005.4
20260902175504 17 0 0.0 0.0 0.00 0.03 0.03 75 1005.3
20260902175005 17 0 0.0 0.0 0.00 0.03 0.03 74 1005.4
20260902174504 17 0 0.0 0.0 0.00 0.03 0.03 75 1005.5
20260902174005 17 0 0.0 0.0 0.00 0.03 0.03 74 1005.5
20260902173504 17 0 0.0 0.0 0.00 0.03 0.03 75 1005.5
20260902172004 17 0 0.0 0.0 0.00 0.03 0.03 74 1005.7
20260902170505 17 0 0.0 0.0 0.00 0.03 0.03 76 1005.8
20260902165504 17 0 0.0 0.0 0.00 0.03 0.03 77 1006.0
20260902165005 17 0 0.0 0.0 0.00 0.03 0.03 76 1006.1
20260902164504 17 0 0.0 0.0 0.00 0.03 0.03 77 1006.0
20260902164006 17 0 0.0 0.0 0.00 0.03 0.03 75 1006.1
20260902163505 17 0 0.0 0.0 0.00 0.03 0.03 75 1006.1
20260902162504 17 0 0.0 0.0 0.00 0.03 0.03 78 1006.1
20260902162005 17 0 0.0 0.0 0.00 0.03 0.03 78 1006.2
20260902161504 17 0 0.0 0.0 0.00 0.03 0.03 77 1006.1
20260902161006 17 0 0.0 0.0 0.00 0.03 0.03 78 1006.2
20260902160504 17 0 0.0 0.0 0.00 0.03 0.03 78 1006.3
20260902160007 17 0 0.0 0.0 0.00 0.03 0.03 80 1006.3
20260902154005 17 0 0.0 0.0 0.00 0.03 0.03 87 1006.5
20260902153504 16 0 0.0 0.0 0.00 0.03 0.03 90 1006.5
20260902153005 15 0 0.0 0.0 0.00 0.03 0.03 93 1006.6
20260902152504 15 0 0.0 0.0 0.00 0.03 0.03 94 1006.7
20260902152005 14 0 0.0 0.0 0.00 0.03 0.03 93 1006.7
20260902151504 14 0 0.0 0.0 0.00 0.03 0.03 93 1006.8
20260902145504 13 0 0.0 0.0 0.00 0.03 0.03 93 1007.1
20260902145004 13 0 0.0 0.0 0.00 0.03 0.03 93 1007.2
20260902144504 13 0 0.0 0.0 0.00 0.03 0.03 93 1007.2
20260902144005 13 0 0.0 0.0 0.00 0.03 0.03 93 1007.3
20260902143504 13 0 0.0 0.0 0.00 0.03 0.03 93 1007.4
20260902143006 13 0 0.0 0.0 0.00 0.03 0.03 93 1007.5
20260902142504 13 0 0.0 0.0 0.00 0.03 0.03 93 1007.5
20260902142005 13 0 0.0 0.0 0.00 0.03 0.03 93 1007.5
20260902141504 13 0 0.0 0.0 0.00 0.03 0.03 92 1007.4
20260902141004 13 0 0.0 0.0 0.00 0.03 0.03 92 1007.5
20260902140504 13 0 0.0 0.0 0.00 0.03 0.03 92 1007.4
20260902140005 13 0 0.0 0.0 0.00 0.03 0.03 93 1007.5
20260902135504 13 0 0.0 0.0 0.00 0.03 0.03 93 1007.5
20260902135005 13 0 0.0 0.0 0.00 0.03 0.03 93 1007.4
20260902134504 13 0 0.0 0.0 0.00 0.03 0.03 93 1007.4
20260902134005 12 0 0.0 0.0 0.00 0.03 0.03 93 1007.5
20260902133504 12 0 0.0 0.0 0.00 0.03 0.03 92 1007.5
20260902133006 12 0 0.0 0.0 0.00 0.03 0.03 92 1007.4
20260902132504 12 0 0.0 0.0 0.00 0.03 0.03 92 1007.5
20260902132005 12 0 0.0 0.0 0.00 0.03 0.03 91 1007.5
20260902131504 12 0 0.0 0.0 0.00 0.03 0.03 92 1007.4
20260902131004 13 0 0.0 0.0 0.00 0.03 0.03 91 1007.5
20260902130005 13 0 0.0 0.0 0.00 0.03 0.03 91 1007.7
20260902125503 13 0 0.0 0.0 0.00 0.03 0.03 91 1007.8
20260902125004 13 0 0.0 0.0 0.00 0.03 0.03 91 1007.8
20260902124504 13 0 0.0 0.0 0.00 0.03 0.03 92 1007.9
20260902123504 13 0 0.0 0.0 0.00 0.03 0.03 92 1007.8
20260902123004 13 0 0.0 0.0 0.00 0.03 0.03 92 1007.8
20260902122504 13 0 0.0 0.0 0.00 0.03 0.03 92 1007.9
20260902121505 13 0 0.0 0.0 0.00 0.03 0.03 92 1008.0
20260902121004 13 0 0.0 0.0 0.00 0.03 0.03 92 1008.0
20260902120504 13 0 0.0 0.0 0.00 0.03 0.03 92 1008.0
20260902120004 13 0 0.0 0.0 0.00 0.03 0.03 92 1008.0
20260902115504 13 0 0.0 0.0 0.00 0.03 0.03 92 1008.1
20260902115004 13 0 0.0 0.0 0.00 0.03 0.03 91 1008.1
20260902114504 13 0 0.0 0.0 0.00 0.03 0.03 91 1008.2
20260902114006 13 0 0.0 0.0 0.00 0.03 0.03 91 1008.2
20260902113504 13 0 0.0 0.0 0.00 0.03 0.03 91 1008.3
20260902113004 14 0 0.0 0.0 0.00 0.03 0.03 91 1008.2
20260902112005 14 0 0.0 0.0 0.00 0.03 0.03 91 1008.3
20260902111504 14 0 0.0 0.0 0.00 0.03 0.03 91 1008.4
20260902110505 14 0 0.0 0.0 0.00 0.03 0.03 92 1008.5
20260902105503 14 0 0.0 0.0 0.00 0.03 0.03 91 1008.5
20260902104504 14 0 0.0 0.0 0.00 0.03 0.03 91 1008.5
20260902104004 14 0 0.0 0.0 0.00 0.03 0.03 91 1008.5
20260902103504 14 0 0.0 0.0 0.00 0.03 0.03 91 1008.6
20260902103005 14 0 0.0 0.0 0.00 0.03 0.03 91 1008.6
20260902102004 14 0 0.0 0.0 0.00 0.03 0.03 91 1008.7
20260902101504 14 0 0.0 0.0 0.00 0.03 0.03 91 1008.8
20260902101004 14 0 0.0 0.0 0.00 0.03 0.03 91 1008.9
20260902100504 14 0 0.0 0.0 0.00 0.03 0.03 91 1008.9
20260902100005 14 0 0.0 0.0 0.00 0.03 0.03 90 1008.8
20260902095004 14 0 0.0 0.0 0.00 0.03 0.03 90 1008.9
20260902094503 14 0 0.0 0.0 0.00 0.03 0.03 90 1008.9
20260902094005 14 0 0.0 0.0 0.03 0.03 0.03 91 1008.9
20260902093004 15 0 0.0 0.0 0.03 0.03 0.03 90 1008.9
20260902092504 15 0 0.0 0.0 0.03 0.03 0.03 90 1009.0
20260902092004 15 0 0.0 0.0 0.03 0.03 0.03 90 1009.0
20260902090504 15 0 0.0 0.0 0.03 0.03 0.03 90 1009.1
20260902090005 15 0 0.0 0.0 0.03 0.03 0.03 90 1009.2
20260902085503 15 0 0.0 0.0 0.03 0.03 0.03 90 1009.2
20260902085005 15 0 0.0 0.0 0.03 0.03 0.03 90 1009.3
20260902084504 15 0 0.0 0.0 0.03 0.03 0.03 90 1009.3
20260902083503 15 0 0.0 0.0 0.00 0.00 0.00 90 1009.4
20260902083005 15 0 0.0 0.0 0.00 0.00 0.00 89 1009.4
20260902082504 15 0 0.0 0.0 0.00 0.00 0.00 89 1009.4
20260902082004 15 0 0.0 0.0 0.00 0.00 0.00 89 1009.4
20260902081503 15 0 0.0 0.0 0.00 0.00 0.00 89 1009.5
20260902081004 15 0 0.0 0.0 0.00 0.00 0.00 89 1009.5
20260902080503 15 0 0.0 0.0 0.00 0.00 0.00 89 1009.5
20260902080004 15 0 0.0 0.0 0.00 0.00 0.00 89 1009.5
20260902075504 15 0 0.0 0.0 0.00 0.00 0.00 89 1009.5
20260902075004 15 0 0.0 0.0 0.00 0.00 0.00 89 1009.5
20260902074504 15 0 0.0 0.0 0.00 0.00 0.00 89 1009.7
20260902074004 15 0 0.0 0.0 0.00 0.00 0.00 89 1009.7
20260902073503 15 0 0.0 0.0 0.00 0.00 0.00 89 1009.7
20260902073004 15 0 0.0 0.0 0.00 0.00 0.00 89 1009.7
20260902072504 15 0 0.0 0.0 0.00 0.00 0.00 89 1009.7
20260902072004 15 0 0.0 0.0 0.00 0.00 0.00 89 1009.7
20260902071503 15 0 0.0 0.0 0.00 0.00 0.00 89 1009.8
20260902070503 15 0 0.0 0.0 0.00 0.00 0.00 89 1009.8
20260902070007 15 0 0.0 0.0 0.00 0.00 0.00 89 1009.9
20260902065503 15 0 0.0 0.0 0.00 0.00 0.00 89 1009.9
20260902065004 15 0 0.0 0.0 0.00 0.00 0.00 89 1009.9
20260902064504 15 0 0.0 0.0 0.00 0.00 0.00 89 1009.9
20260902064004 15 0 0.0 0.0 0.00 0.00 0.00 89 1009.9
20260902063505 15 0 0.0 0.0 0.00 0.00 0.00 89 1009.9
20260902063006 15 0 0.0 0.0 0.00 0.00 0.00 89 1009.9
20260902062505 15 0 0.0 0.0 0.00 0.00 0.00 89 1010.0
20260902061006 15 0 0.0 0.0 0.00 0.00 0.00 89 1010.0
20260902060005 15 0 0.0 0.0 0.00 0.00 0.00 89 1010.0
20260902055505 15 0 0.0 0.0 0.00 0.00 0.00 89 1010.0
20260902054506 15 0 0.0 0.0 0.00 0.00 0.00 89 1010.0
20260902054006 15 0 0.0 0.0 0.00 0.00 0.00 89 1010.0
20260902053505 15 0 0.0 0.0 0.00 0.00 0.00 89 1010.1
20260902053006 15 0 0.0 0.0 0.00 0.00 0.00 89 1010.1
20260902052505 15 0 0.0 0.0 0.00 0.00 0.00 89 1010.2
20260902052006 15 0 0.0 0.0 0.00 0.00 0.00 89 1010.2
20260902051505 15 0 0.0 0.0 0.00 0.00 0.00 89 1010.3
20260902051006 15 0 0.0 0.0 0.00 0.00 0.00 89 1010.2
20260902050505 15 0 0.0 0.0 0.00 0.00 0.00 89 1010.2
20260902050007 15 0 0.0 0.0 0.00 0.00 0.00 89 1010.3
20260902045506 15 0 0.0 0.0 0.00 0.00 0.00 89 1010.2
20260902045005 15 0 0.0 0.0 0.00 0.00 0.00 89 1010.3
20260902044506 15 0 0.0 0.0 0.00 0.00 0.00 89 1010.2
20260902044006 15 0 0.0 0.0 0.00 0.00 0.00 88 1010.3
20260902043505 15 0 0.0 0.0 0.00 0.00 0.00 88 1010.3
20260902042505 15 0 0.0 0.0 0.00 0.00 0.00 88 1010.3
20260902042005 15 0 0.0 0.0 0.00 0.00 0.00 88 1010.2
20260902041006 15 0 0.0 0.0 0.00 0.00 0.00 87 1010.2
20260902040504 15 0 0.0 0.0 0.00 0.00 0.00 87 1010.2
20260902040005 15 0 0.0 0.0 0.00 0.00 0.00 87 1010.3
20260902035006 16 0 0.0 0.0 0.00 0.00 0.00 87 1010.4
20260902034505 16 0 0.0 0.0 0.00 0.00 0.00 86 1010.4
20260902034005 16 0 0.0 0.0 0.00 0.00 0.00 86 1010.4
20260902033505 16 0 0.0 0.0 0.00 0.00 0.00 86 1010.4
20260902033005 16 0 0.0 0.0 0.00 0.00 0.00 85 1010.3
20260902032505 16 0 0.0 0.0 0.00 0.00 0.00 85 1010.4
20260902032006 16 0 0.0 0.0 0.00 0.00 0.00 84 1010.3
20260902031006 16 0 0.0 0.0 0.00 0.00 0.00 83 1010.2
20260902030505 16 0 0.0 0.0 0.00 0.00 0.00 82 1010.2
20260902030006 17 270 0.0 6.4 0.00 0.00 0.00 81 1010.1
20260902025505 17 270 0.0 6.4 0.00 0.00 0.00 79 1010.1
20260902025006 17 270 0.0 3.2 0.00 0.00 0.00 78 1010.0
20260902024005 17 270 0.0 11.3 0.00 0.00 0.00 75 1009.9
20260902023505 17 270 0.0 6.4 0.00 0.00 0.00 74 1009.8
20260902023006 17 270 0.0 6.4 0.00 0.00 0.00 74 1009.8
20260902022505 17 0 0.0 0.0 0.00 0.00 0.00 74 1009.7
20260902022005 17 0 0.0 0.0 0.00 0.00 0.00 74 1009.7
20260902021505 17 270 0.0 1.6 0.00 0.00 0.00 74 1009.8
20260902021005 17 270 0.0 3.2 0.00 0.00 0.00 75 1009.8
20260902020504 17 270 0.0 3.2 0.00 0.00 0.00 74 1009.8
20260902020005 17 270 0.0 1.6 0.00 0.00 0.00 74 1009.7
20260902014005 17 0 0.0 0.0 0.00 0.00 0.00 75 1009.8
20260902013504 17 270 0.0 1.6 0.00 0.00 0.00 74 1009.8
20260902012505 17 270 1.6 11.3 0.00 0.00 0.00 74 1009.8
20260902012005 17 270 1.6 11.3 0.00 0.00 0.00 74 1009.7
20260902011505 18 270 0.0 9.7 0.00 0.00 0.00 75 1009.8
20260902011006 18 270 0.0 1.6 0.00 0.00 0.00 75 1009.7
20260902010505 18 270 0.0 6.4 0.00 0.00 0.00 74 1009.8
20260902010005 18 270 0.0 6.4 0.00 0.00 0.00 74 1009.8
20260902005505 18 270 0.0 4.8 0.00 0.00 0.00 74 1009.8
20260902004505 18 270 0.0 4.8 0.00 0.00 0.00 74 1009.8
20260902004006 18 270 0.0 1.6 0.00 0.00 0.00 74 1009.8
20260902003505 18 270 0.0 4.8 0.00 0.00 0.00 75 1009.9
20260902003005 18 270 0.0 4.8 0.00 0.00 0.00 75 1009.9
20260902002505 18 270 0.0 3.2 0.00 0.00 0.00 75 1010.0
20260902002005 18 270 0.0 9.7 0.00 0.00 0.00 76 1009.9
20260902001505 18 270 0.0 9.7 0.00 0.00 0.00 75 1009.9
20260902001004 18 270 0.0 9.7 0.00 0.00 0.00 75 1009.8
20260902000006 18 270 0.0 1.6 0.00 0.00 0.00 74 1009.8
20260901235506 18 0 0.0 0.0 0.00 0.00 0.00 75 1009.8
20260901234505 18 0 0.0 0.0 0.00 0.00 0.00 76 1009.8
20260901234005 17 0 0.0 0.0 0.00 0.00 0.00 76 1009.8
20260901233005 17 0 0.0 0.0 0.00 0.00 0.00 76 1009.9
20260901232505 17 270 0.0 3.2 0.00 0.00 0.00 77 1009.8
20260901232005 17 270 0.0 3.2 0.00 0.00 0.00 77 1009.9
20260901231504 17 0 0.0 0.0 0.00 0.00 0.00 78 1009.8
20260901231005 17 270 0.0 1.6 0.00 0.00 0.00 77 1009.9
20260901230504 17 270 0.0 1.6 0.00 0.00 0.00 78 1009.9
20260901230005 17 270 0.0 1.6 0.00 0.00 0.00 78 1009.9
20260901225504 17 270 0.0 1.6 0.00 0.00 0.00 77 1009.9
20260901224505 17 0 0.0 0.0 0.00 0.00 0.00 77 1010.0
20260901224005 17 0 0.0 0.0 0.00 0.00 0.00 77 1010.0
20260901223504 17 0 0.0 0.0 0.00 0.00 0.00 78 1010.0
20260901223006 17 0 0.0 0.0 0.00 0.00 0.00 77 1009.9
20260901222505 17 0 0.0 0.0 0.00 0.00 0.00 77 1009.9
20260901222005 17 0 0.0 0.0 0.00 0.00 0.00 77 1009.9
20260901221504 17 0 0.0 0.0 0.00 0.00 0.00 76 1009.9
20260901221004 18 0 0.0 0.0 0.00 0.00 0.00 77 1009.9
20260901220505 18 270 0.0 1.6 0.00 0.00 0.00 76 1009.9
20260901220005 18 270 0.0 1.6 0.00 0.00 0.00 76 1009.9
20260901215504 18 270 0.0 6.4 0.00 0.00 0.00 76 1009.9
20260901214505 18 270 0.0 1.6 0.00 0.00 0.00 76 1009.8
20260901214006 18 0 0.0 0.0 0.00 0.00 0.00 76 1009.8
20260901213005 18 270 0.0 1.6 0.00 0.00 0.00 75 1009.8
20260901212005 18 270 0.0 1.6 0.00 0.00 0.00 74 1009.8
20260901211504 18 270 0.0 3.2 0.00 0.00 0.00 74 1009.8
20260901210504 18 270 0.0 1.6 0.00 0.00 0.00 74 1009.8
20260901210005 18 0 0.0 0.0 0.00 0.00 0.00 76 1009.9
20260901205505 18 270 0.0 1.6 0.00 0.00 0.00 75 1009.8
20260901205005 18 270 0.0 1.6 0.00 0.00 0.00 76 1009.9
20260901204504 18 270 0.0 1.6 0.00 0.00 0.00 76 1010.0
20260901204005 18 270 0.0 3.2 0.00 0.00 0.00 76 1010.0
20260901203504 18 270 0.0 3.2 0.00 0.00 0.00 77 1010.0
20260901203005 18 0 0.0 0.0 0.00 0.00 0.00 78 1010.0
20260901202505 18 0 0.0 0.0 0.00 0.00 0.00 77 1010.1
20260901202005 18 0 0.0 0.0 0.00 0.00 0.00 78 1010.1
20260901201504 17 0 0.0 0.0 0.00 0.00 0.00 78 1010.2
20260901201005 17 0 0.0 0.0 0.00 0.00 0.00 79 1010.2
20260901200504 17 0 0.0 0.0 0.00 0.00 0.00 78 1010.1
20260901200006 17 0 0.0 0.0 0.00 0.00 0.00 78 1010.2
20260901195004 17 0 0.0 0.0 0.00 0.00 0.00 79 1010.2
20260901194004 17 0 0.0 0.0 0.00 0.00 0.00 79 1010.3
20260901193505 17 0 0.0 0.0 0.00 0.00 0.00 79 1010.4
20260901193004 17 0 0.0 0.0 0.00 0.00 0.00 79 1010.3
20260901192505 17 0 0.0 0.0 0.00 0.00 0.00 79 1010.3